Location: Saint-Michel-des-Saints
(46.6688°N, 73.9573°W)
Time: 11:33:29
(UTC-05:00)

Envisat - Visible Passes

Search period start: 15 December 2019 00:00
Search period end: 25 December 2019 00:00
Orbit: 764 x 766 km, 98.1° (Epoch: 15 December)

Date Brightness Start Highest point End Pass type
(mag) Time Alt. Az. Time Alt. Az. Time Alt. Az.
15 Dec 3.6 06:35:49 10° NNE 06:40:52 62° E 06:45:53 10° S visible
15 Dec 3.1 17:53:04 10° S 17:58:09 78° WSW 18:03:16 10° NNW visible
15 Dec 6.2 19:37:20 10° W 19:38:01 10° W 19:38:42 10° WNW visible
16 Dec 5.1 05:59:27 10° NNE 06:03:54 30° E 06:08:18 10° SSE visible
16 Dec 3.1 17:16:33 10° SE 17:21:27 51° ENE 17:26:22 10° N visible
16 Dec 5.4 18:56:49 10° SW 19:00:46 22° W 19:04:43 10° NW visible
17 Dec 6.0 05:24:03 10° NE 05:26:44 14° E 05:29:24 10° ESE visible
17 Dec 3.9 16:40:47 10° ESE 16:44:56 26° ENE 16:49:06 10° N visible
17 Dec 4.0 18:18:51 10° S 18:23:43 46° W 18:28:37 10° NNW visible
18 Dec 4.1 06:24:36 10° NNE 06:29:33 49° E 06:34:28 10° S visible
18 Dec 2.9 17:41:47 10° SSE 17:46:52 85° ENE 17:51:59 10° NNW visible
18 Dec 6.0 19:24:11 10° WSW 19:26:34 13° W 19:28:58 10° WNW visible
19 Dec 5.5 05:48:25 10° NE 05:52:32 24° E 05:56:36 10° SE visible
19 Dec 3.4 17:05:29 10° SE 17:10:13 41° ENE 17:14:59 10° N visible
19 Dec 5.0 18:45:04 10° SSW 18:49:23 28° W 18:53:43 10° NW visible
20 Dec 6.3 05:13:49 10° ENE 05:15:17 11° E 05:16:45 10° ESE visible
20 Dec 3.1 06:49:58 10° NNE 06:55:06 83° ESE 07:00:11 10° SSW visible
20 Dec 3.6 18:07:24 10° S 18:12:23 58° W 18:17:25 10° NNW visible
21 Dec 4.5 06:13:26 10° NNE 06:18:13 40° E 06:22:58 10° SSE visible
21 Dec 2.9 17:30:34 10° SSE 17:35:37 69° ENE 17:40:41 10° N visible
21 Dec 5.8 19:11:56 10° SW 19:15:09 17° W 19:18:21 10° NW visible
22 Dec 5.8 05:37:30 10° NE 05:41:08 19° E 05:44:45 10° SE visible
22 Dec 3.6 16:54:29 10° SE 16:59:00 34° ENE 17:03:34 10° N visible
22 Dec 4.6 18:33:25 10° SSW 18:38:01 34° W 18:42:38 10° NNW visible
23 Dec 3.5 06:38:43 10° NNE 06:43:48 67° ESE 06:48:51 10° S visible
23 Dec 3.2 17:56:01 10° S 18:01:05 72° WSW 18:06:11 10° NNW visible
24 Dec 4.9 06:02:18 10° NNE 06:06:51 32° E 06:11:23 10° SSE visible
24 Dec 3.1 17:19:24 10° SSE 17:24:21 55° ENE 17:29:20 10° N visible
24 Dec 5.5 18:59:58 10° SW 19:03:43 21° W 19:07:31 10° NW visible
